This is the latest recevied weather packets stored in our database for station/object PA3DZX-13. If no packets are shown the sender has not sent any weather packets the latest 10 day(s).
| Time | Temp. | Humidity | Pressure | Rain* | Wind** | Luminosity | Snow |
|---|---|---|---|---|---|---|---|
| 1787835013 | 25.56° C | 54% | 1010.3 hPa | 0 mm | - | - | - |
| 1787834113 | 25.56° C | 55% | 1010.3 hPa | 0 mm | - | - | - |
| 1787833212 | 25.56° C | 55% | 1010.4 hPa | 0 mm | - | - | - |
| 1787832312 | 25.56° C | 53% | 1010.5 hPa | 0 mm | - | - | - |
| 1787831412 | 26.67° C | 52% | 1010.7 hPa | 0 mm | - | - | - |
| 1787830512 | 26.67° C | 52% | 1010.7 hPa | 0 mm | - | - | - |
| 1787829611 | 26.67° C | 52% | 1010.8 hPa | 0 mm | - | - | - |
| 1787828711 | 25.56° C | 54% | 1010.9 hPa | 0 mm | - | - | - |
| 1787827810 | 25° C | 58% | 1010.9 hPa | 0 mm | - | - | - |
| 1787826910 | 23.89° C | 58% | 1011.2 hPa | 0 mm | - | - | - |
| 1787826009 | 22.78° C | 61% | 1011.5 hPa | 0 mm | - | - | - |
| 1787825110 | 21.67° C | 62% | 1011.8 hPa | 0 mm | - | - | - |
| 1787824209 | 22.78° C | 61% | 1011.8 hPa | 0 mm | - | - | - |
| 1787823309 | 22.78° C | 63% | 1011.6 hPa | 0 mm | - | - | - |
| 1787822409 | 20.56° C | 67% | 1012 hPa | 0 mm | - | - | - |
| 1787821508 | 20.56° C | 68% | 1012.3 hPa | 0 mm | - | - | - |
| 1787820611 | 20° C | 69% | 1012.6 hPa | 0 mm | - | - | - |
| 1787819707 | 20° C | 70% | 1012.6 hPa | 0 mm | - | - | - |
| 1787818807 | 18.89° C | 72% | 1012.7 hPa | 0 mm | - | - | - |
| 1787817907 | 18.89° C | 75% | 1012.9 hPa | 0 mm | - | - | - |
| 1787817006 | 18.89° C | 76% | 1013 hPa | 0 mm | - | - | - |
| 1787816106 | 17.78° C | 76% | 1013.1 hPa | 0 mm | - | - | - |
| 1787815206 | 16.67° C | 80% | 1013.3 hPa | 0 mm | - | - | - |
| 1787814306 | 16.67° C | 81% | 1013.2 hPa | 0 mm | - | - | - |
| 1787813406 | 15.56° C | 82% | 1013.3 hPa | 0 mm | - | - | - |
* Rain latest hour (hover to see other rain measurements)
** Current wind speed in m/s (hover to see current wind gust speed)